Weather Roundup
Issued by NWS

Home | Current Version | Previous Version | Text Only | Print | Product List | Glossary On
Versions: 1 2 3 4 5 6 7 8 9 10 11 12 13 14 15 16 17 18 19 20 21 22 23 24 25 26 27 28 29 30 31 32 33 34 35 36 37 38 39 40 41 42 43 44 45 46 47 48 49 50
398
NZUS93 KARX 291010
HRRWXR

CURRENT HOURLY OBSERVATIONS ACROSS
MUCH OF THE UPPER MISSISSIPPI VALLEY
NATIONAL WEATHER SERVICE LA CROSSE WI
500 AM CDT FRI JUL 29 2016


...SOUTHEAST MINNESOTA...


CITY           SKY/WX    TMP DP  RH WIND       PRES   REMARKS
ROCHESTER      CLOUDY    64  61  90 NE9       30.03S
ROCHESTER/MAYO CLOUDY    64  62  93 N5        30.03R
WINONA         CLOUDY    66  61  82 NE5       30.01S
AUSTIN         LGT RAIN  63  57  82 NE6       30.01S
ALBERT LEA     DRIZZLE   64  61  88 N7        30.02S
DODGE CENTER   CLOUDY   N/A N/A N/A NE9       30.03S
PRESTON        CLOUDY    61  59  93 NE8       30.01S
OWATONNA       CLOUDY    64  61  88 NE3       30.04S
FARIBAULT      CLOUDY    64  63  94 N3        30.04S
$$

...ELSEWHERE IN MINNESOTA...


CITY           SKY/WX    TMP DP  RH WIND       PRES   REMARKS
MINNEAPOLIS    PTCLDY    62  56  80 N7        30.05S
INTNL FALLS    CLEAR     49  47  93 S3        30.11R
DULUTH         PTCLDY    51  50  96 N3        30.12R
RED WING       CLOUDY    64  61  88 N3        30.03R
REDWOOD FALLS  CLEAR     57  54  89 NW7       30.07R
MANKATO        MOCLDY    63  55  77 N7        30.04S
WORTHINGTON    CLEAR     56  54  93 N7        30.06F
FAIRMONT       CLOUDY    61  54  77 N6        30.02F
$$

...SOUTHWEST WISCONSIN...


CITY           SKY/WX    TMP DP  RH WIND       PRES   REMARKS
LA CROSSE      CLOUDY    66  60  81 N6        29.99S
PRAIRIE DU CHI CLOUDY    66  61  84 N3        29.96R
BOSCOBEL       CLOUDY    67  62  84 NE6       29.96F
LONE ROCK      CLOUDY    66  61  84 NE7       29.97S
PLATTEVILLE    CLOUDY    66  64  94 NE7       29.95S
FORT MC COY    CLOUDY    63  56  79 NE7       30.02S
CAMP DOUGLAS   PTCLDY    63  55  76 NE2       30.00S
MAUSTON-NEW LI CLOUDY    64  59  83 NE3       30.00R
VIROQUA        CLOUDY    63  63  99 NE6       30.00S
WIS DELLS      DRIZZLE   61  59  92 NE5       29.99R
$$

...ELSEWHERE IN WISCONSIN...


CITY           SKY/WX    TMP DP  RH WIND       PRES   REMARKS
MILWAUKEE      CLOUDY    68  65  90 NE9       29.94S
MADISON        LGT RAIN  65  62  90 NE9       29.96S
GREEN BAY      CLOUDY    60  58  92 N9        30.01S
EAU CLAIRE     CLOUDY    62  57  83 N5        30.03S
BLACK RVR FLS  CLOUDY    62  62  97 NE3       30.01F
MEDFORD        CLEAR     55  55 100 NE6       30.05F
WAUSAU         MOCLDY    59  52  77 N5        30.03F
WIS RAPIDS     CLOUDY    61  52  72 NE8       30.03F
MARSHFIELD     PTCLDY    61  56  83 NE8       30.03F
RICE LAKE      CLEAR     54  52  93 CALM      30.09R
$$

...NORTHEAST IOWA...


CITY           SKY/WX    TMP DP  RH WIND       PRES   REMARKS
WATERLOO       CLOUDY    65  63  93 N7        29.94F
DUBUQUE        CLOUDY    67  64  90 NE8       29.95S
DECORAH        DRIZZLE   63  63 100 NE5       29.97S
MASON CITY     CLOUDY    64  60  87 N10       30.01F
CHARLES CITY   CLOUDY    63  63 100 N6        29.99S FOG
OELWEIN        CLOUDY    66  66 100 NE8       29.96S
$$

...ELSEWHERE IN IOWA...


CITY           SKY/WX    TMP DP  RH WIND       PRES   REMARKS
DES MOINES     CLOUDY    67  63  87 N6        29.96F
IOWA CITY      CLOUDY    68  65  90 W7        29.94S
FORT DODGE     PTCLDY    61  59  94 CALM      30.00F
MARSHALLTOWN   CLOUDY    65  64  97 N6        29.95F
CEDAR RAPIDS   CLOUDY    66  66 100 NW8       29.92F
$$

...NORTHERN ILLINOIS...


CITY           SKY/WX    TMP DP  RH WIND       PRES   REMARKS
CHICAGO-OHARE  MOCLDY    70  68  93 N3        29.91S
CHICAGO-MIDWAY MOCLDY    71  68  90 NW3       29.91R
MOLINE         CLOUDY    71  67  87 N3        29.90F
ROCKFORD       CLOUDY    69  64  84 N8        29.94S
PEORIA         CLEAR     68  67  96 NW5       29.90S
$$

NOTE: "FAIR" INDICATES FEW OR NO CLOUDS BELOW 12,000 FEET WITH NO
SIGNIFICANT WEATHER AND/OR OBSTRUCTIONS TO VISIBILITY. WIND
SPEEDS ARE IN MILES-PER-HOUR.




USA.gov is the U.S. government's official web portal to all federal, state and local government web resources and services.